Year,Month,Day,Hour,Minute,Value (Times are PST for temperature in C)
2008,01,27,04,56,-1.10
2008,01,27,04,57,-1.10
2008,01,27,04,58,-1.10
2008,01,27,04,59,-1.10
2008,01,27,05,00,-1.10
2008,01,27,05,01,-1.10
2008,01,27,05,02,-1.10
2008,01,27,05,03,-1.10
2008,01,27,05,04,-1.10
2008,01,27,05,05,-1.10
2008,01,27,05,06,-1.10
2008,01,27,05,07,-1.10
2008,01,27,05,08,-1.10
2008,01,27,05,09,-1.10
2008,01,27,05,10,-1.10
2008,01,27,05,11,-1.10
2008,01,27,05,12,-1.20
2008,01,27,05,13,-1.20
2008,01,27,05,14,-1.20
2008,01,27,05,15,-1.20
2008,01,27,05,16,-1.10
2008,01,27,05,17,-1.10
2008,01,27,05,18,-1.10
2008,01,27,05,19,-1.10
2008,01,27,05,20,-1.10
2008,01,27,05,21,-1.10
2008,01,27,05,22,-1.00
2008,01,27,05,23,-1.00
2008,01,27,05,24,-1.00
2008,01,27,05,25,-1.00
2008,01,27,05,26,-1.00
2008,01,27,05,27,-1.00
2008,01,27,05,28,-1.00
2008,01,27,05,29,-1.00
2008,01,27,05,30,-0.90
2008,01,27,05,31,-0.90
2008,01,27,05,32,-0.90
2008,01,27,05,33,-0.90
2008,01,27,05,34,-1.00
2008,01,27,05,35,-1.00
2008,01,27,05,36,-1.00
2008,01,27,05,37,-1.00
2008,01,27,05,38,-1.10
2008,01,27,05,39,-1.10
2008,01,27,05,40,-1.10
2008,01,27,05,41,-1.10
2008,01,27,05,42,-1.10
2008,01,27,05,43,-1.10
2008,01,27,05,44,-1.10
2008,01,27,05,45,-1.20
2008,01,27,05,46,-1.20
2008,01,27,05,47,-1.20
2008,01,27,05,48,-1.20
2008,01,27,05,49,-1.20
2008,01,27,05,50,-1.20
2008,01,27,05,51,-1.10
2008,01,27,05,52,-1.10
2008,01,27,05,53,-1.20
2008,01,27,05,54,-1.20
2008,01,27,05,55,-1.20
2008,01,27,05,56,-1.10
2008,01,27,05,57,-1.10
2008,01,27,05,58,-1.10
2008,01,27,05,59,-1.00
2008,01,27,06,00,-1.00
2008,01,27,06,01,-1.00
2008,01,27,06,02,-0.90
2008,01,27,06,03,-0.90
2008,01,27,06,04,-0.90
2008,01,27,06,05,-0.90
2008,01,27,06,06,-0.90
2008,01,27,06,07,-0.90
2008,01,27,06,08,-1.00
2008,01,27,06,09,-1.00
2008,01,27,06,10,-0.90
2008,01,27,06,11,-0.90
2008,01,27,06,12,-0.90
2008,01,27,06,13,-0.90
2008,01,27,06,14,-0.90
2008,01,27,06,15,-0.90
2008,01,27,06,16,-0.90
2008,01,27,06,17,-0.90
2008,01,27,06,18,-0.90
2008,01,27,06,19,-0.90
2008,01,27,06,20,-0.80
2008,01,27,06,21,-0.80
2008,01,27,06,22,-0.80
2008,01,27,06,23,-0.80
2008,01,27,06,24,-0.80
2008,01,27,06,25,-0.90
2008,01,27,06,26,-0.90
2008,01,27,06,27,-0.90
2008,01,27,06,28,-0.90
2008,01,27,06,29,-0.90
2008,01,27,06,30,-1.00
2008,01,27,06,31,-1.00
2008,01,27,06,32,-1.00
2008,01,27,06,33,-1.00
2008,01,27,06,34,-1.00
2008,01,27,06,35,-1.00
2008,01,27,06,36,-1.00
2008,01,27,06,37,-0.90
2008,01,27,06,38,-0.90
2008,01,27,06,39,-0.90
2008,01,27,06,40,-0.90
2008,01,27,06,41,-0.90
2008,01,27,06,42,-0.90
2008,01,27,06,43,-0.90
2008,01,27,06,44,-0.90
2008,01,27,06,45,-0.90
2008,01,27,06,46,-0.90
2008,01,27,06,47,-0.80
2008,01,27,06,48,-0.90
2008,01,27,06,49,-0.90
2008,01,27,06,50,-0.90
2008,01,27,06,51,-0.90
2008,01,27,06,52,-0.90
2008,01,27,06,53,-0.90
2008,01,27,06,54,-0.90
2008,01,27,06,55,-1.00
2008,01,27,06,56,-1.00
2008,01,27,06,57,-1.00
2008,01,27,06,58,-1.10
2008,01,27,06,59,-1.10
2008,01,27,07,00,-1.10
2008,01,27,07,01,-1.10
2008,01,27,07,02,-1.20
2008,01,27,07,03,-1.20
2008,01,27,07,04,-1.20
2008,01,27,07,05,-1.30
2008,01,27,07,06,-1.30
2008,01,27,07,07,-1.30
2008,01,27,07,08,-1.30
2008,01,27,07,09,-1.30
2008,01,27,07,10,-1.30
2008,01,27,07,11,-1.40
2008,01,27,07,12,-1.40
2008,01,27,07,13,-1.40
2008,01,27,07,14,-1.40
2008,01,27,07,15,-1.40
2008,01,27,07,16,-1.40
2008,01,27,07,17,-1.40
2008,01,27,07,18,-1.40
2008,01,27,07,19,-1.40
2008,01,27,07,20,-1.40
2008,01,27,07,21,-1.40
2008,01,27,07,22,-1.40
2008,01,27,07,23,-1.50
2008,01,27,07,24,-1.50
2008,01,27,07,25,-1.50
2008,01,27,07,26,-1.60
2008,01,27,07,27,-1.60
2008,01,27,07,28,-1.60
2008,01,27,07,29,-1.60
2008,01,27,07,30,-1.60
2008,01,27,07,31,-1.60
2008,01,27,07,32,-1.70
2008,01,27,07,33,-1.70
2008,01,27,07,34,-1.70
2008,01,27,07,35,-1.70
2008,01,27,07,36,-1.70
2008,01,27,07,37,-1.70
2008,01,27,07,38,-1.70
2008,01,27,07,39,-1.70
2008,01,27,07,40,-1.70
2008,01,27,07,41,-1.70
2008,01,27,07,42,-1.70
2008,01,27,07,43,-1.70
2008,01,27,07,44,-1.70
2008,01,27,07,45,-1.70
2008,01,27,07,46,-1.70
2008,01,27,07,47,-1.70
2008,01,27,07,48,-1.70
2008,01,27,07,49,-1.70
2008,01,27,07,50,-1.70
2008,01,27,07,51,-1.70
2008,01,27,07,52,-1.70
2008,01,27,07,53,-1.70
2008,01,27,07,54,-1.70
2008,01,27,07,55,-1.70
2008,01,27,07,56,-1.70
2008,01,27,07,57,-1.70
2008,01,27,07,58,-1.70
2008,01,27,07,59,-1.70
2008,01,27,08,00,-1.70
2008,01,27,08,01,-1.70
2008,01,27,08,02,-1.70
2008,01,27,08,03,-1.80
2008,01,27,08,04,-1.80
2008,01,27,08,05,-1.80
2008,01,27,08,06,-1.80
2008,01,27,08,07,-1.70
2008,01,27,08,08,-1.70
2008,01,27,08,09,-1.70
2008,01,27,08,10,-1.70
2008,01,27,08,11,-1.80
2008,01,27,08,12,-1.80
2008,01,27,08,13,-1.80
2008,01,27,08,14,-1.80
2008,01,27,08,15,-1.80
2008,01,27,08,16,-1.80
2008,01,27,08,17,-1.80
2008,01,27,08,18,-1.80
2008,01,27,08,19,-1.80
2008,01,27,08,20,-1.80
2008,01,27,08,21,-1.80
2008,01,27,08,22,-1.80
2008,01,27,08,23,-1.80
2008,01,27,08,24,-1.80
2008,01,27,08,25,-1.80
2008,01,27,08,26,-1.80
2008,01,27,08,27,-1.80
2008,01,27,08,28,-1.80
2008,01,27,08,29,-1.80
2008,01,27,08,30,-1.80
2008,01,27,08,31,-1.80
2008,01,27,08,32,-1.80
2008,01,27,08,33,-1.80
2008,01,27,08,34,-1.80
2008,01,27,08,35,-1.80
2008,01,27,08,36,-1.80
2008,01,27,08,37,-1.80
2008,01,27,08,38,-1.80
2008,01,27,08,39,-1.80
2008,01,27,08,40,-1.80
2008,01,27,08,41,-1.80
2008,01,27,08,42,-1.70
2008,01,27,08,43,-1.70
2008,01,27,08,44,-1.70
2008,01,27,08,45,-1.70
2008,01,27,08,46,-1.60
2008,01,27,08,47,-1.60
2008,01,27,08,48,-1.60
2008,01,27,08,49,-1.50
2008,01,27,08,50,-1.50
2008,01,27,08,51,-1.50
2008,01,27,08,52,-1.40
2008,01,27,08,53,-1.40
2008,01,27,08,54,-1.40
2008,01,27,08,55,-1.40
2008,01,27,08,56,-1.40
2008,01,27,08,57,-1.30
2008,01,27,08,58,-1.30
2008,01,27,08,59,-1.30
2008,01,27,09,00,-1.30
2008,01,27,09,01,-1.30
2008,01,27,09,02,-1.30
2008,01,27,09,03,-1.30
2008,01,27,09,04,-1.30
2008,01,27,09,05,-1.30
2008,01,27,09,06,-1.30
2008,01,27,09,07,-1.30
2008,01,27,09,08,-1.20
2008,01,27,09,09,-1.20
2008,01,27,09,10,-1.20
2008,01,27,09,11,-1.20
2008,01,27,09,12,-1.20
2008,01,27,09,13,-1.10
2008,01,27,09,14,-1.10
2008,01,27,09,15,-1.10
2008,01,27,09,16,-1.00
2008,01,27,09,17,-1.00
2008,01,27,09,18,-1.00
2008,01,27,09,19,-1.00
2008,01,27,09,20,-1.00
2008,01,27,09,21,-1.00
2008,01,27,09,22,-1.00
2008,01,27,09,23,-0.90
2008,01,27,09,24,-0.90
2008,01,27,09,25,-0.90
2008,01,27,09,26,-0.90
2008,01,27,09,27,-0.80
2008,01,27,09,28,-0.80
2008,01,27,09,29,-0.80
2008,01,27,09,30,-0.80
2008,01,27,09,31,-0.70
2008,01,27,09,32,-0.70
2008,01,27,09,33,-0.70
2008,01,27,09,34,-0.60
2008,01,27,09,35,-0.60
2008,01,27,09,36,-0.60
2008,01,27,09,37,-0.60
2008,01,27,09,38,-0.50
2008,01,27,09,39,-0.50
2008,01,27,09,40,-0.40
2008,01,27,09,41,-0.30
2008,01,27,09,42,-0.30
2008,01,27,09,43,-0.20
2008,01,27,09,44,-0.20
2008,01,27,09,45,-0.20
2008,01,27,09,46,-0.20
2008,01,27,09,47,-0.20
2008,01,27,09,48,-0.20
2008,01,27,09,49,-0.20
2008,01,27,09,50,-0.20
2008,01,27,09,51,-0.10
2008,01,27,09,52,-0.10
2008,01,27,09,53,0.00
2008,01,27,09,54,0.00
2008,01,27,09,55,0.10
2008,01,27,09,56,0.10
2008,01,27,09,57,0.20
2008,01,27,09,58,0.20
2008,01,27,09,59,0.30
2008,01,27,10,00,0.30
2008,01,27,10,01,0.30
2008,01,27,10,02,0.30
2008,01,27,10,03,0.40
2008,01,27,10,04,0.40
2008,01,27,10,05,0.50
2008,01,27,10,06,0.60
2008,01,27,10,07,0.70
2008,01,27,10,08,0.70
2008,01,27,10,09,0.70
2008,01,27,10,10,0.70
2008,01,27,10,11,0.80
2008,01,27,10,12,0.80
2008,01,27,10,13,0.90
2008,01,27,10,14,0.90
2008,01,27,10,15,1.00
2008,01,27,10,16,1.10
2008,01,27,10,17,1.20
2008,01,27,10,18,1.30
2008,01,27,10,19,1.30
2008,01,27,10,20,1.30
2008,01,27,10,21,1.40
2008,01,27,10,22,1.50
2008,01,27,10,23,1.50
2008,01,27,10,24,1.60
2008,01,27,10,25,1.60
2008,01,27,10,26,1.60
2008,01,27,10,27,1.70
2008,01,27,10,28,1.70
2008,01,27,10,29,1.80
2008,01,27,10,30,1.80
2008,01,27,10,31,1.90
2008,01,27,10,32,1.90
2008,01,27,10,33,2.00
2008,01,27,10,34,2.10
2008,01,27,10,35,2.10
2008,01,27,10,36,2.10
2008,01,27,10,37,2.10
2008,01,27,10,38,2.20
2008,01,27,10,39,2.20
2008,01,27,10,40,2.20
2008,01,27,10,41,2.20
2008,01,27,10,42,2.20
2008,01,27,10,43,2.20
2008,01,27,10,44,2.20
2008,01,27,10,45,2.20
2008,01,27,10,46,2.20
2008,01,27,10,47,2.20
2008,01,27,10,48,2.30
2008,01,27,10,49,2.30
2008,01,27,10,50,2.30
2008,01,27,10,51,2.40
2008,01,27,10,52,2.40
2008,01,27,10,53,2.60
2008,01,27,10,54,2.60
2008,01,27,10,55,2.70
2008,01,27,10,56,2.80
2008,01,27,10,57,2.90
2008,01,27,10,58,3.10
2008,01,27,10,59,3.20
2008,01,27,11,00,3.20
2008,01,27,11,01,3.20
2008,01,27,11,02,3.30
2008,01,27,11,03,3.30
2008,01,27,11,04,3.30
2008,01,27,11,05,3.30
2008,01,27,11,06,3.30
2008,01,27,11,07,3.30
2008,01,27,11,08,3.30
2008,01,27,11,09,3.30
2008,01,27,11,10,3.30
2008,01,27,11,11,3.30
2008,01,27,11,12,3.30
2008,01,27,11,13,3.30
2008,01,27,11,14,3.30
2008,01,27,11,15,3.30
2008,01,27,11,16,3.30
2008,01,27,11,17,3.40
2008,01,27,11,18,3.40
2008,01,27,11,19,3.40
2008,01,27,11,20,3.40
2008,01,27,11,21,3.40
2008,01,27,11,22,3.40
2008,01,27,11,23,3.50
2008,01,27,11,24,3.50
2008,01,27,11,25,3.50
2008,01,27,11,26,3.60
2008,01,27,11,27,3.60
2008,01,27,11,28,3.60
2008,01,27,11,29,3.60
2008,01,27,11,30,3.50
2008,01,27,11,31,3.50
2008,01,27,11,32,3.40
2008,01,27,11,33,3.40
2008,01,27,11,34,3.40
2008,01,27,11,35,3.40
2008,01,27,11,36,3.40
2008,01,27,11,37,3.40
2008,01,27,11,38,3.40
2008,01,27,11,39,3.50
2008,01,27,11,40,3.50
2008,01,27,11,41,3.60
2008,01,27,11,42,3.70
2008,01,27,11,43,3.70
2008,01,27,11,44,3.70
2008,01,27,11,45,3.70
2008,01,27,11,46,3.60
2008,01,27,11,47,3.60
2008,01,27,11,48,3.60
2008,01,27,11,49,3.60
2008,01,27,11,50,3.60
2008,01,27,11,51,3.60
2008,01,27,11,52,3.50
2008,01,27,11,53,3.50
2008,01,27,11,54,3.40
2008,01,27,11,55,3.40
2008,01,27,11,56,3.30
2008,01,27,11,57,3.30
2008,01,27,11,58,3.20
2008,01,27,11,59,3.20
2008,01,27,12,00,3.20
2008,01,27,12,01,3.20
2008,01,27,12,02,3.10
2008,01,27,12,03,3.10
2008,01,27,12,04,3.00
2008,01,27,12,05,2.90
2008,01,27,12,06,2.90
2008,01,27,12,07,2.80
2008,01,27,12,08,2.70
2008,01,27,12,09,2.60
2008,01,27,12,10,2.60
2008,01,27,12,11,2.60
2008,01,27,12,12,2.50
2008,01,27,12,13,2.50
2008,01,27,12,14,2.40
2008,01,27,12,15,2.40
2008,01,27,12,16,2.40
2008,01,27,12,17,2.50
2008,01,27,12,18,2.50
2008,01,27,12,19,2.40
2008,01,27,12,20,2.40
2008,01,27,12,21,2.40
2008,01,27,12,22,2.40
2008,01,27,12,23,2.40
2008,01,27,12,24,2.40
2008,01,27,12,25,2.40
2008,01,27,12,26,2.40
2008,01,27,12,27,2.40
2008,01,27,12,28,2.50
2008,01,27,12,29,2.50
2008,01,27,12,30,2.50
2008,01,27,12,31,2.60
2008,01,27,12,32,2.60
2008,01,27,12,33,2.70
2008,01,27,12,34,2.70
2008,01,27,12,35,2.70
2008,01,27,12,36,2.70
2008,01,27,12,37,2.70
2008,01,27,12,38,2.70
2008,01,27,12,39,2.70
2008,01,27,12,40,2.70
2008,01,27,12,41,2.70
2008,01,27,12,42,2.70
2008,01,27,12,43,2.70
2008,01,27,12,44,2.70
2008,01,27,12,45,2.70
2008,01,27,12,46,2.70
2008,01,27,12,47,2.70
2008,01,27,12,48,2.70
2008,01,27,12,49,2.70
2008,01,27,12,50,2.70
2008,01,27,12,51,2.70
2008,01,27,12,52,2.70
2008,01,27,12,53,2.70
2008,01,27,12,54,2.70
2008,01,27,12,55,2.80
2008,01,27,12,56,2.80
2008,01,27,12,57,2.80
2008,01,27,12,58,2.80
2008,01,27,12,59,2.80
2008,01,27,13,00,2.70
2008,01,27,13,01,2.70
2008,01,27,13,02,2.70
2008,01,27,13,03,2.70
2008,01,27,13,04,2.70
2008,01,27,13,05,2.70
2008,01,27,13,06,2.70
2008,01,27,13,07,2.70
2008,01,27,13,08,2.80
2008,01,27,13,09,2.80
2008,01,27,13,10,2.80
2008,01,27,13,11,2.80
2008,01,27,13,12,2.90
2008,01,27,13,13,2.90
2008,01,27,13,14,2.90
2008,01,27,13,15,2.90
2008,01,27,13,16,2.80
2008,01,27,13,17,2.80
2008,01,27,13,18,2.80
2008,01,27,13,19,2.70
2008,01,27,13,20,2.70
2008,01,27,13,21,2.70
2008,01,27,13,22,2.70
2008,01,27,13,23,2.70
2008,01,27,13,24,2.70
2008,01,27,13,25,2.70
2008,01,27,13,26,2.60
2008,01,27,13,27,2.50
2008,01,27,13,28,2.50
2008,01,27,13,29,2.40
2008,01,27,13,30,2.40
2008,01,27,13,31,2.30
2008,01,27,13,32,2.30
2008,01,27,13,33,2.30
2008,01,27,13,34,2.30
2008,01,27,13,35,2.30
2008,01,27,13,36,2.30
2008,01,27,13,37,2.30
2008,01,27,13,38,2.30
2008,01,27,13,39,2.30
2008,01,27,13,40,2.30
2008,01,27,13,41,2.30
2008,01,27,13,42,2.30
2008,01,27,13,43,2.40
2008,01,27,13,44,2.40
2008,01,27,13,45,2.40
2008,01,27,13,46,2.40
2008,01,27,13,47,2.40
2008,01,27,13,48,2.40
2008,01,27,13,49,2.50
2008,01,27,13,50,2.50
2008,01,27,13,51,2.50
2008,01,27,13,52,2.50
2008,01,27,13,53,2.50
2008,01,27,13,54,2.50
2008,01,27,13,55,2.50
2008,01,27,13,56,2.40
2008,01,27,13,57,2.40
2008,01,27,13,58,2.40
2008,01,27,13,59,2.40
2008,01,27,14,00,2.40
2008,01,27,14,01,2.40
2008,01,27,14,02,2.50
2008,01,27,14,03,2.50
2008,01,27,14,04,2.50
2008,01,27,14,05,2.40
2008,01,27,14,06,2.40
2008,01,27,14,07,2.40
2008,01,27,14,08,2.40
2008,01,27,14,09,2.40
2008,01,27,14,10,2.40
2008,01,27,14,11,2.40
2008,01,27,14,12,2.50
2008,01,27,14,13,2.50
2008,01,27,14,14,2.60
2008,01,27,14,15,2.60
2008,01,27,14,16,2.60
2008,01,27,14,17,2.60
2008,01,27,14,18,2.60
2008,01,27,14,19,2.70
2008,01,27,14,20,2.70
2008,01,27,14,21,2.80
2008,01,27,14,22,2.80
2008,01,27,14,23,2.80
2008,01,27,14,24,2.80
2008,01,27,14,25,2.80
2008,01,27,14,26,2.80
2008,01,27,14,27,2.80
2008,01,27,14,28,2.80
2008,01,27,14,29,2.80
2008,01,27,14,30,2.80
2008,01,27,14,31,2.70
2008,01,27,14,32,2.60
2008,01,27,14,33,2.50
2008,01,27,14,34,2.50
2008,01,27,14,35,2.40
2008,01,27,14,36,2.30
2008,01,27,14,37,2.30
2008,01,27,14,38,2.20
2008,01,27,14,39,2.20
2008,01,27,14,40,2.20
2008,01,27,14,41,2.20
2008,01,27,14,42,2.10
2008,01,27,14,43,2.10
2008,01,27,14,44,2.10
2008,01,27,14,45,2.10
2008,01,27,14,46,2.10
2008,01,27,14,47,2.00
2008,01,27,14,48,2.10
2008,01,27,14,49,2.10
2008,01,27,14,50,2.10
2008,01,27,14,51,2.00
2008,01,27,14,52,1.90
2008,01,27,14,53,1.90
2008,01,27,14,54,1.90
2008,01,27,14,55,1.90
2008,01,27,14,56,1.80
2008,01,27,14,57,1.80
2008,01,27,14,58,1.70
2008,01,27,14,59,1.60
2008,01,27,15,00,1.50
2008,01,27,15,01,1.40
2008,01,27,15,02,1.30
2008,01,27,15,03,1.30
2008,01,27,15,04,1.30
2008,01,27,15,05,1.20
2008,01,27,15,06,1.20
2008,01,27,15,07,1.20
2008,01,27,15,08,1.10
2008,01,27,15,09,1.10
2008,01,27,15,10,1.00
2008,01,27,15,11,1.00
2008,01,27,15,12,0.90
2008,01,27,15,13,0.90
2008,01,27,15,14,0.90
2008,01,27,15,15,0.90
2008,01,27,15,16,0.80
2008,01,27,15,17,0.80
2008,01,27,15,18,0.80
2008,01,27,15,19,0.80
2008,01,27,15,20,0.80
2008,01,27,15,21,0.70
2008,01,27,15,22,0.70
2008,01,27,15,23,0.70
2008,01,27,15,24,0.60
2008,01,27,15,25,0.60
2008,01,27,15,26,0.60
2008,01,27,15,27,0.60
2008,01,27,15,28,0.50
2008,01,27,15,29,0.50
2008,01,27,15,30,0.50
2008,01,27,15,31,0.40
2008,01,27,15,32,0.40
2008,01,27,15,33,0.40
2008,01,27,15,34,0.40
2008,01,27,15,35,0.40
2008,01,27,15,36,0.40
2008,01,27,15,37,0.40
2008,01,27,15,38,0.30
2008,01,27,15,39,0.30
2008,01,27,15,40,0.30
2008,01,27,15,41,0.30
2008,01,27,15,42,0.40
2008,01,27,15,43,0.40
2008,01,27,15,44,0.40
2008,01,27,15,45,0.40
2008,01,27,15,46,0.40
2008,01,27,15,47,0.40
2008,01,27,15,48,0.50
2008,01,27,15,49,0.40
2008,01,27,15,50,0.40
2008,01,27,15,51,0.40
2008,01,27,15,52,0.40
2008,01,27,15,53,0.40
2008,01,27,15,54,0.40
2008,01,27,15,55,0.40
2008,01,27,15,56,0.40
2008,01,27,15,57,0.50
2008,01,27,15,58,0.50
2008,01,27,15,59,0.50
2008,01,27,16,00,0.50
2008,01,27,16,01,0.50
2008,01,27,16,02,0.50
2008,01,27,16,03,0.50
2008,01,27,16,04,0.50
2008,01,27,16,05,0.50
2008,01,27,16,06,0.50
2008,01,27,16,07,0.50
2008,01,27,16,08,0.50
2008,01,27,16,09,0.50
2008,01,27,16,10,0.50
2008,01,27,16,11,0.50
2008,01,27,16,12,0.40
2008,01,27,16,13,0.40
2008,01,27,16,14,0.40
2008,01,27,16,15,0.40
2008,01,27,16,16,0.40
2008,01,27,16,17,0.40
2008,01,27,16,18,0.40
2008,01,27,16,19,0.30
2008,01,27,16,20,0.30
2008,01,27,16,21,0.30
2008,01,27,16,22,0.30
2008,01,27,16,23,0.20
2008,01,27,16,24,0.20
2008,01,27,16,25,0.20
2008,01,27,16,26,0.10
2008,01,27,16,27,0.10
2008,01,27,16,28,0.10
2008,01,27,16,29,0.10
2008,01,27,16,30,0.10
2008,01,27,16,31,0.00
2008,01,27,16,32,0.00
2008,01,27,16,33,0.00
2008,01,27,16,34,0.00
2008,01,27,16,35,0.00
2008,01,27,16,36,0.00
2008,01,27,16,37,0.00
2008,01,27,16,38,0.00
2008,01,27,16,39,0.00
2008,01,27,16,40,0.00
2008,01,27,16,41,0.10
2008,01,27,16,42,0.10
2008,01,27,16,43,0.10
2008,01,27,16,44,0.10
2008,01,27,16,45,0.10
2008,01,27,16,46,0.10
2008,01,27,16,47,0.10
2008,01,27,16,48,0.10
2008,01,27,16,49,0.10
2008,01,27,16,50,0.10
2008,01,27,16,51,0.10
2008,01,27,16,52,0.10
2008,01,27,16,53,0.10
2008,01,27,16,54,0.10
2008,01,27,16,55,0.10
2008,01,27,16,56,0.10
2008,01,27,16,57,0.10
2008,01,27,16,58,0.10
2008,01,27,16,59,0.10
2008,01,27,17,00,0.10
2008,01,27,17,01,0.10
2008,01,27,17,02,0.10
2008,01,27,17,03,0.10
2008,01,27,17,04,0.00
2008,01,27,17,05,0.00
2008,01,27,17,06,0.00
2008,01,27,17,07,0.00
2008,01,27,17,08,0.00
2008,01,27,17,09,-0.10
2008,01,27,17,10,-0.10
2008,01,27,17,11,-0.10
2008,01,27,17,12,-0.10
2008,01,27,17,13,-0.10
2008,01,27,17,14,-0.10
2008,01,27,17,15,-0.10
2008,01,27,17,16,-0.10
2008,01,27,17,17,-0.10
2008,01,27,17,18,-0.20
2008,01,27,17,19,-0.20
2008,01,27,17,20,-0.20
2008,01,27,17,21,-0.20
2008,01,27,17,22,-0.20
2008,01,27,17,23,-0.20
2008,01,27,17,24,-0.20
2008,01,27,17,25,-0.20
2008,01,27,17,26,-0.20
2008,01,27,17,27,-0.20
2008,01,27,17,28,-0.20
2008,01,27,17,29,-0.30
2008,01,27,17,30,-0.30
2008,01,27,17,31,-0.30
2008,01,27,17,32,-0.30
2008,01,27,17,33,-0.30
2008,01,27,17,34,-0.30
2008,01,27,17,35,-0.30
2008,01,27,17,36,-0.30
2008,01,27,17,37,-0.40
2008,01,27,17,38,-0.40
2008,01,27,17,39,-0.40
2008,01,27,17,40,-0.40
2008,01,27,17,41,-0.40
2008,01,27,17,42,-0.40
2008,01,27,17,43,-0.40
2008,01,27,17,44,-0.40
2008,01,27,17,45,-0.50
2008,01,27,17,46,-0.50
2008,01,27,17,47,-0.50
2008,01,27,17,48,-0.50
2008,01,27,17,49,-0.60
2008,01,27,17,50,-0.60
2008,01,27,17,51,-0.60
2008,01,27,17,52,-0.60
2008,01,27,17,53,-0.60
2008,01,27,17,54,-0.60
2008,01,27,17,55,-0.60
2008,01,27,17,56,-0.60
2008,01,27,17,57,-0.60
2008,01,27,17,58,-0.60
2008,01,27,17,59,-0.60
2008,01,27,18,00,-0.60
2008,01,27,18,01,-0.60
2008,01,27,18,02,-0.60
2008,01,27,18,03,-0.60
2008,01,27,18,04,-0.60
2008,01,27,18,05,-0.60
2008,01,27,18,06,-0.60
2008,01,27,18,07,-0.60
2008,01,27,18,08,-0.60
2008,01,27,18,09,-0.70
2008,01,27,18,10,-0.70
2008,01,27,18,11,-0.70
2008,01,27,18,12,-0.70
2008,01,27,18,13,-0.70
2008,01,27,18,14,-0.70
2008,01,27,18,15,-0.70
2008,01,27,18,16,-0.70
2008,01,27,18,17,-0.70
2008,01,27,18,18,-0.80
2008,01,27,18,19,-0.80
2008,01,27,18,20,-0.70
2008,01,27,18,21,-0.70
2008,01,27,18,22,-0.70
2008,01,27,18,23,-0.70
2008,01,27,18,24,-0.80
2008,01,27,18,25,-0.80
2008,01,27,18,26,-0.80
2008,01,27,18,27,-0.80
2008,01,27,18,28,-0.80
2008,01,27,18,29,-0.80
2008,01,27,18,30,-0.80
2008,01,27,18,31,-0.80
2008,01,27,18,32,-0.80
2008,01,27,18,33,-0.80
2008,01,27,18,34,-0.80
2008,01,27,18,35,-0.80
2008,01,27,18,36,-0.80
2008,01,27,18,37,-0.80
2008,01,27,18,38,-0.80
2008,01,27,18,39,-0.90
2008,01,27,18,40,-0.90
2008,01,27,18,41,-0.90
2008,01,27,18,42,-0.90
2008,01,27,18,43,-0.90
2008,01,27,18,44,-0.90
2008,01,27,18,45,-0.90
2008,01,27,18,46,-1.00
2008,01,27,18,47,-1.00
2008,01,27,18,48,-1.00
2008,01,27,18,49,-1.00
2008,01,27,18,50,-1.10
2008,01,27,18,51,-1.10
2008,01,27,18,52,-1.10
2008,01,27,18,53,-1.10
2008,01,27,18,54,-1.20
2008,01,27,18,55,-1.20
2008,01,27,18,56,-1.20
2008,01,27,18,57,-1.20
2008,01,27,18,58,-1.20
2008,01,27,18,59,-1.20
2008,01,27,19,00,-1.20
2008,01,27,19,01,-1.30
2008,01,27,19,02,-1.30
2008,01,27,19,03,-1.30
2008,01,27,19,04,-1.30
2008,01,27,19,05,-1.30
2008,01,27,19,06,-1.30
2008,01,27,19,07,-1.30
2008,01,27,19,08,-1.40
2008,01,27,19,09,-1.40
2008,01,27,19,10,-1.40
2008,01,27,19,11,-1.40
2008,01,27,19,12,-1.40
2008,01,27,19,13,-1.40
2008,01,27,19,14,-1.40
2008,01,27,19,15,-1.50
2008,01,27,19,16,-1.50
2008,01,27,19,17,-1.50
2008,01,27,19,18,-1.60
2008,01,27,19,19,-1.60
2008,01,27,19,20,-1.60
2008,01,27,19,21,-1.60
2008,01,27,19,22,-1.70
2008,01,27,19,23,-1.70
2008,01,27,19,24,-1.70
2008,01,27,19,25,-1.70
2008,01,27,19,26,-1.70
2008,01,27,19,27,-1.70
2008,01,27,19,28,-1.80
2008,01,27,19,29,-1.80
2008,01,27,19,30,-1.80
2008,01,27,19,31,-1.80
2008,01,27,19,32,-1.80
2008,01,27,19,33,-1.80
2008,01,27,19,34,-1.80
2008,01,27,19,35,-1.80
2008,01,27,19,36,-1.80
2008,01,27,19,37,-1.80
2008,01,27,19,38,-1.80
2008,01,27,19,39,-1.80
2008,01,27,19,40,-1.80
2008,01,27,19,41,-1.90
2008,01,27,19,42,-1.90
2008,01,27,19,43,-1.90
2008,01,27,19,44,-1.90
2008,01,27,19,45,-1.90
2008,01,27,19,46,-1.90
2008,01,27,19,47,-2.00
2008,01,27,19,48,-2.00
2008,01,27,19,49,-2.00
2008,01,27,19,50,-2.00
2008,01,27,19,51,-2.00
2008,01,27,19,52,-2.10
2008,01,27,19,53,-2.10
2008,01,27,19,54,-2.10
2008,01,27,19,55,-2.10
2008,01,27,19,56,-2.10
2008,01,27,19,57,-2.10
2008,01,27,19,58,-2.10
2008,01,27,19,59,-2.10
2008,01,27,20,00,-2.10
2008,01,27,20,01,-2.10
2008,01,27,20,02,-2.10
2008,01,27,20,03,-2.10
2008,01,27,20,04,-2.10
2008,01,27,20,05,-2.10
2008,01,27,20,06,-2.00
2008,01,27,20,07,-2.00
2008,01,27,20,08,-2.00
2008,01,27,20,09,-2.00
2008,01,27,20,10,-1.90
2008,01,27,20,11,-1.90
2008,01,27,20,12,-1.90
2008,01,27,20,13,-1.90
2008,01,27,20,14,-1.80
2008,01,27,20,15,-1.80
2008,01,27,20,16,-1.80
2008,01,27,20,17,-1.90
2008,01,27,20,18,-1.90
2008,01,27,20,19,-1.90
2008,01,27,20,20,-1.90
2008,01,27,20,21,-1.90
2008,01,27,20,22,-2.00
2008,01,27,20,23,-2.00
2008,01,27,20,24,-2.10
2008,01,27,20,25,-2.10
2008,01,27,20,26,-2.10
2008,01,27,20,27,-2.10
2008,01,27,20,28,-2.10
2008,01,27,20,29,-2.10
2008,01,27,20,30,-2.10
2008,01,27,20,31,-2.10
2008,01,27,20,32,-2.10
2008,01,27,20,33,-2.10
2008,01,27,20,34,-2.10
2008,01,27,20,35,-2.10
2008,01,27,20,36,-2.10
2008,01,27,20,37,-2.10
2008,01,27,20,38,-2.10
2008,01,27,20,39,-2.10
2008,01,27,20,40,-2.10
2008,01,27,20,41,-2.20
2008,01,27,20,42,-2.20
2008,01,27,20,43,-2.20
2008,01,27,20,44,-2.20
2008,01,27,20,45,-2.20
2008,01,27,20,46,-2.20
2008,01,27,20,47,-2.20
2008,01,27,20,48,-2.30
2008,01,27,20,49,-2.30
2008,01,27,20,50,-2.30
2008,01,27,20,51,-2.30
2008,01,27,20,52,-2.30
2008,01,27,20,53,-2.30
2008,01,27,20,54,-2.30
2008,01,27,20,55,-2.30
2008,01,27,20,56,-2.30
2008,01,27,20,57,-2.30
2008,01,27,20,58,-2.30
2008,01,27,20,59,-2.40
2008,01,27,21,00,-2.40
2008,01,27,21,01,-2.40
2008,01,27,21,02,-2.40
2008,01,27,21,03,-2.40
2008,01,27,21,04,-2.40
2008,01,27,21,05,-2.50
2008,01,27,21,06,-2.50
2008,01,27,21,07,-2.50
2008,01,27,21,08,-2.50
2008,01,27,21,09,-2.60
2008,01,27,21,10,-2.60
2008,01,27,21,11,-2.60
2008,01,27,21,12,-2.60
2008,01,27,21,13,-2.60
2008,01,27,21,14,-2.60
2008,01,27,21,15,-2.60
2008,01,27,21,16,-2.60
2008,01,27,21,17,-2.60
2008,01,27,21,18,-2.60
2008,01,27,21,19,-2.60
2008,01,27,21,20,-2.60
2008,01,27,21,21,-2.60
2008,01,27,21,22,-2.60
2008,01,27,21,23,-2.60
2008,01,27,21,24,-2.70
2008,01,27,21,25,-2.70
2008,01,27,21,26,-2.70
2008,01,27,21,27,-2.70
2008,01,27,21,28,-2.70
2008,01,27,21,29,-2.70
2008,01,27,21,30,-2.70
2008,01,27,21,31,-2.70
2008,01,27,21,32,-2.70
2008,01,27,21,33,-2.70
2008,01,27,21,34,-2.70
2008,01,27,21,35,-2.70
2008,01,27,21,36,-2.70
2008,01,27,21,37,-2.60
2008,01,27,21,38,-2.60
2008,01,27,21,39,-2.60
2008,01,27,21,40,-2.60
2008,01,27,21,41,-2.60
2008,01,27,21,42,-2.60
2008,01,27,21,43,-2.60
2008,01,27,21,44,-2.60
2008,01,27,21,45,-2.60
2008,01,27,21,46,-2.60
2008,01,27,21,47,-2.60
2008,01,27,21,48,-2.70
2008,01,27,21,49,-2.70
2008,01,27,21,50,-2.70
2008,01,27,21,51,-2.70
2008,01,27,21,52,-2.70
2008,01,27,21,53,-2.70
2008,01,27,21,54,-2.70
2008,01,27,21,55,-2.70
2008,01,27,21,56,-2.70
2008,01,27,21,57,-2.70
2008,01,27,21,58,-2.70
2008,01,27,21,59,-2.70
2008,01,27,22,00,-2.70
2008,01,27,22,01,-2.70
2008,01,27,22,02,-2.70
2008,01,27,22,03,-2.70
2008,01,27,22,04,-2.70
2008,01,27,22,05,-2.70
2008,01,27,22,06,-2.70
2008,01,27,22,07,-2.70
2008,01,27,22,08,-2.70
2008,01,27,22,09,-2.70
2008,01,27,22,10,-2.70
2008,01,27,22,11,-2.70
2008,01,27,22,12,-2.70
2008,01,27,22,13,-2.70
2008,01,27,22,14,-2.70
2008,01,27,22,15,-2.70
2008,01,27,22,16,-2.70
2008,01,27,22,17,-2.80
2008,01,27,22,18,-2.80
2008,01,27,22,19,-2.80
2008,01,27,22,20,-2.80
2008,01,27,22,21,-2.80
2008,01,27,22,22,-2.80
2008,01,27,22,23,-2.70
2008,01,27,22,24,-2.70
2008,01,27,22,25,-2.70
2008,01,27,22,26,-2.70
2008,01,27,22,27,-2.70
2008,01,27,22,28,-2.70
2008,01,27,22,29,-2.70
2008,01,27,22,30,-2.70
2008,01,27,22,31,-2.70
2008,01,27,22,32,-2.70
2008,01,27,22,33,-2.70
2008,01,27,22,34,-2.70